Wetterdaten: Dienstag, 04.08.2015
Datum Zeit Temp. A. Feuchte A. Luftdruck Regen Wind Richtung Richtung Sonnenschein ET UV Solar Taupunkt Windchill Windben Empfang
04.08.2015 00:02 16,8 C 86 % 1017,4 hPa 0,0 l/m 0,0 km/h (0 Bft) O-NO 72 0 min 0,000 mm 0,0 UV-I 0 W/m 14,4 C 16,8 C 0,0 km/h (0 Bft) 0,00 %
04.08.2015 00:07 16,7 C 87 % 1017,4 hPa 0,0 l/m 0,0 km/h (0 Bft) O-NO 72 0 min 0,000 mm 0,0 UV-I 0 W/m 14,5 C 16,7 C 0,0 km/h (0 Bft) 0,00 %
04.08.2015 00:12 16,7 C 88 % 1017,2 hPa 0,0 l/m 0,0 km/h (0 Bft) O-NO 72 0 min 0,000 mm 0,0 UV-I 0 W/m 14,7 C 16,7 C 0,0 km/h (0 Bft) 0,00 %
04.08.2015 00:17 16,6 C 88 % 1017,3 hPa 0,0 l/m 0,0 km/h (0 Bft) NO 43 0 min 0,000 mm 0,0 UV-I 0 W/m 14,6 C 16,6 C 0,0 km/h (0 Bft) 0,00 %
04.08.2015 00:22 16,5 C 88 % 1017,5 hPa 0,0 l/m 0,0 km/h (0 Bft) NO 43 0 min 0,000 mm 0,0 UV-I 0 W/m 14,5 C 16,5 C 0,0 km/h (0 Bft) 0,00 %
04.08.2015 00:27 16,5 C 89 % 1017,3 hPa 0,0 l/m 0,0 km/h (0 Bft) NO 43 0 min 0,000 mm 0,0 UV-I 0 W/m 14,7 C 16,5 C 0,0 km/h (0 Bft) 0,00 %
04.08.2015 00:32 16,4 C 89 % 1017,4 hPa 0,0 l/m 0,0 km/h (0 Bft) NO 46 0 min 0,000 mm 0,0 UV-I 0 W/m 14,6 C 16,4 C 0,0 km/h (0 Bft) 0,00 %
04.08.2015 00:37 16,3 C 89 % 1017,4 hPa 0,0 l/m 0,0 km/h (0 Bft) NO 46 0 min 0,000 mm 0,0 UV-I 0 W/m 14,5 C 16,3 C 0,0 km/h (0 Bft) 0,00 %
04.08.2015 00:42 16,3 C 89 % 1017,2 hPa 0,0 l/m 0,0 km/h (0 Bft) NO 46 0 min 0,000 mm 0,0 UV-I 0 W/m 14,5 C 16,3 C 0,0 km/h (0 Bft) 0,00 %
04.08.2015 00:47 16,2 C 91 % 1017,1 hPa 0,0 l/m 0,0 km/h (0 Bft) NO 46 0 min 0,000 mm 0,0 UV-I 0 W/m 14,7 C 16,2 C 0,0 km/h (0 Bft) 0,00 %
04.08.2015 00:52 16,1 C 91 % 1017,0 hPa 0,0 l/m 0,0 km/h (0 Bft) NO 46 0 min 0,000 mm 0,0 UV-I 0 W/m 14,6 C 16,1 C 0,0 km/h (0 Bft) 0,00 %
04.08.2015 00:57 16,0 C 91 % 1017,0 hPa 0,0 l/m 0,0 km/h (0 Bft) NO 46 0 min 0,000 mm 0,0 UV-I 0 W/m 14,5 C 16,0 C 0,0 km/h (0 Bft) 0,00 %
04.08.2015 01:02 15,9 C 91 % 1017,0 hPa 0,0 l/m 0,0 km/h (0 Bft) N-NO 33 0 min 0,000 mm 0,0 UV-I 0 W/m 14,4 C 15,9 C 0,0 km/h (0 Bft) 0,00 %
04.08.2015 01:07 15,8 C 91 % 1017,0 hPa 0,0 l/m 0,0 km/h (0 Bft) NO 47 0 min 0,000 mm 0,0 UV-I 0 W/m 14,3 C 15,8 C 0,0 km/h (0 Bft) 0,00 %
04.08.2015 01:12 15,7 C 92 % 1017,2 hPa 0,0 l/m 0,0 km/h (0 Bft) NO 50 0 min 0,000 mm 0,0 UV-I 0 W/m 14,4 C 15,7 C 0,0 km/h (0 Bft) 0,00 %
04.08.2015 01:17 15,6 C 92 % 1016,9 hPa 0,0 l/m 0,0 km/h (0 Bft) O-NO 66 0 min 0,000 mm 0,0 UV-I 0 W/m 14,3 C 15,6 C 0,0 km/h (0 Bft) 0,00 %
04.08.2015 01:22 15,6 C 93 % 1017,0 hPa 0,0 l/m 0,0 km/h (0 Bft) O-NO 66 0 min 0,000 mm 0,0 UV-I 0 W/m 14,5 C 15,6 C 0,0 km/h (0 Bft) 0,00 %
04.08.2015 01:27 15,6 C 93 % 1017,0 hPa 0,0 l/m 0,0 km/h (0 Bft) NO 45 0 min 0,000 mm 0,0 UV-I 0 W/m 14,5 C 15,6 C 0,0 km/h (0 Bft) 0,00 %
04.08.2015 01:32 15,5 C 93 % 1016,9 hPa 0,0 l/m 0,0 km/h (0 Bft) NO 46 0 min 0,000 mm 0,0 UV-I 0 W/m 14,4 C 15,5 C 0,0 km/h (0 Bft) 0,00 %
04.08.2015 01:37 15,5 C 93 % 1016,7 hPa 0,0 l/m 0,0 km/h (0 Bft) NO 46 0 min 0,000 mm 0,0 UV-I 0 W/m 14,4 C 15,5 C 0,0 km/h (0 Bft) 0,00 %
04.08.2015 01:42 15,5 C 94 % 1016,7 hPa 0,0 l/m 0,0 km/h (0 Bft) NO 46 0 min 0,000 mm 0,0 UV-I 0 W/m 14,5 C 15,5 C 0,0 km/h (0 Bft) 0,00 %
04.08.2015 01:47 15,5 C 94 % 1016,6 hPa 0,0 l/m 0,0 km/h (0 Bft) NO 46 0 min 0,000 mm 0,0 UV-I 0 W/m 14,5 C 15,5 C 0,0 km/h (0 Bft) 0,00 %
04.08.2015 01:52 15,5 C 94 % 1016,5 hPa 0,0 l/m 0,0 km/h (0 Bft) NO 46 0 min 0,000 mm 0,0 UV-I 0 W/m 14,5 C 15,5 C 0,0 km/h (0 Bft) 0,00 %
04.08.2015 01:57 15,5 C 94 % 1016,6 hPa 0,0 l/m 0,0 km/h (0 Bft) NO 46 0 min 0,000 mm 0,0 UV-I 0 W/m 14,5 C 15,5 C 0,0 km/h (0 Bft) 0,00 %
04.08.2015 02:02 15,5 C 94 % 1016,5 hPa 0,0 l/m 0,0 km/h (0 Bft) NO 46 0 min 0,000 mm 0,0 UV-I 0 W/m 14,5 C 15,5 C 0,0 km/h (0 Bft) 0,00 %
04.08.2015 02:07 15,4 C 94 % 1016,6 hPa 0,0 l/m 0,0 km/h (0 Bft) NO 46 0 min 0,000 mm 0,0 UV-I 0 W/m 14,4 C 15,4 C 0,0 km/h (0 Bft) 0,00 %
04.08.2015 02:12 15,4 C 94 % 1016,5 hPa 0,0 l/m 0,0 km/h (0 Bft) NO 46 0 min 0,000 mm 0,0 UV-I 0 W/m 14,4 C 15,4 C 0,0 km/h (0 Bft) 0,00 %
04.08.2015 02:17 15,3 C 94 % 1016,4 hPa 0,0 l/m 0,0 km/h (0 Bft) NO 45 0 min 0,000 mm 0,0 UV-I 0 W/m 14,3 C 15,3 C 0,0 km/h (0 Bft) 0,00 %
04.08.2015 02:22 15,2 C 95 % 1016,4 hPa 0,0 l/m 0,0 km/h (0 Bft) NO 45 0 min 0,000 mm 0,0 UV-I 0 W/m 14,4 C 15,2 C 0,0 km/h (0 Bft) 0,00 %
04.08.2015 02:27 15,1 C 95 % 1016,3 hPa 0,0 l/m 0,0 km/h (0 Bft) NO 45 0 min 0,000 mm 0,0 UV-I 0 W/m 14,3 C 15,1 C 0,0 km/h (0 Bft) 0,00 %
04.08.2015 02:32 14,9 C 95 % 1016,3 hPa 0,0 l/m 0,0 km/h (0 Bft) NO 42 0 min 0,000 mm 0,0 UV-I 0 W/m 14,1 C 14,9 C 0,0 km/h (0 Bft) 0,00 %
04.08.2015 02:37 14,8 C 95 % 1016,3 hPa 0,0 l/m 0,0 km/h (0 Bft) NO 48 0 min 0,000 mm 0,0 UV-I 0 W/m 14,0 C 14,8 C 0,0 km/h (0 Bft) 0,00 %
04.08.2015 02:42 14,7 C 95 % 1016,3 hPa 0,0 l/m 0,0 km/h (0 Bft) NO 48 0 min 0,000 mm 0,0 UV-I 0 W/m 13,9 C 14,7 C 0,0 km/h (0 Bft) 0,00 %
04.08.2015 02:47 14,7 C 95 % 1016,2 hPa 0,0 l/m 0,0 km/h (0 Bft) NO 48 0 min 0,000 mm 0,0 UV-I 0 W/m 13,9 C 14,7 C 0,0 km/h (0 Bft) 0,00 %
04.08.2015 02:52 14,7 C 95 % 1016,3 hPa 0,0 l/m 0,0 km/h (0 Bft) NO 48 0 min 0,000 mm 0,0 UV-I 0 W/m 13,9 C 14,7 C 0,0 km/h (0 Bft) 0,00 %
04.08.2015 02:57 14,6 C 95 % 1016,1 hPa 0,0 l/m 0,0 km/h (0 Bft) NO 48 0 min 0,000 mm 0,0 UV-I 0 W/m 13,8 C 14,6 C 0,0 km/h (0 Bft) 0,00 %
04.08.2015 03:02 14,5 C 95 % 1016,3 hPa 0,0 l/m 0,0 km/h (0 Bft) NO 48 0 min 0,000 mm 0,0 UV-I 0 W/m 13,7 C 14,5 C 0,0 km/h (0 Bft) 0,00 %
04.08.2015 03:07 14,4 C 95 % 1016,3 hPa 0,0 l/m 0,0 km/h (0 Bft) N-NO 30 0 min 0,000 mm 0,0 UV-I 0 W/m 13,6 C 14,4 C 0,0 km/h (0 Bft) 0,00 %
04.08.2015 03:12 14,3 C 95 % 1016,3 hPa 0,0 l/m 0,0 km/h (0 Bft) NO 36 0 min 0,000 mm 0,0 UV-I 0 W/m 13,5 C 14,3 C 0,0 km/h (0 Bft) 0,00 %
04.08.2015 03:17 14,2 C 95 % 1016,3 hPa 0,0 l/m 0,0 km/h (0 Bft) NO 40 0 min 0,000 mm 0,0 UV-I 0 W/m 13,4 C 14,2 C 0,0 km/h (0 Bft) 0,00 %
04.08.2015 03:22 14,1 C 95 % 1016,2 hPa 0,0 l/m 0,0 km/h (0 Bft) NO 47 0 min 0,000 mm 0,0 UV-I 0 W/m 13,3 C 14,1 C 0,0 km/h (0 Bft) 0,00 %
04.08.2015 03:27 14,1 C 95 % 1016,3 hPa 0,0 l/m 0,0 km/h (0 Bft) NO 47 0 min 0,000 mm 0,0 UV-I 0 W/m 13,3 C 14,1 C 0,0 km/h (0 Bft) 0,00 %
04.08.2015 03:32 14,1 C 96 % 1016,2 hPa 0,0 l/m 0,0 km/h (0 Bft) NO 47 0 min 0,000 mm 0,0 UV-I 0 W/m 13,5 C 14,1 C 0,0 km/h (0 Bft) 0,00 %
04.08.2015 03:37 14,1 C 96 % 1016,2 hPa 0,0 l/m 0,0 km/h (0 Bft) NO 47 0 min 0,000 mm 0,0 UV-I 0 W/m 13,5 C 14,1 C 0,0 km/h (0 Bft) 0,00 %
04.08.2015 03:42 14,1 C 96 % 1016,0 hPa 0,0 l/m 0,0 km/h (0 Bft) NO 47 0 min 0,000 mm 0,0 UV-I 0 W/m 13,5 C 14,1 C 0,0 km/h (0 Bft) 0,00 %
04.08.2015 03:47 14,1 C 96 % 1016,1 hPa 0,0 l/m 0,0 km/h (0 Bft) NO 46 0 min 0,000 mm 0,0 UV-I 0 W/m 13,5 C 14,1 C 0,0 km/h (0 Bft) 0,00 %
04.08.2015 03:52 14,2 C 96 % 1015,9 hPa 0,0 l/m 0,0 km/h (0 Bft) NO 47 0 min 0,000 mm 0,0 UV-I 0 W/m 13,6 C 14,2 C 0,0 km/h (0 Bft) 0,00 %
04.08.2015 03:57 14,2 C 96 % 1015,8 hPa 0,0 l/m 0,0 km/h (0 Bft) NO 46 0 min 0,000 mm 0,0 UV-I 0 W/m 13,6 C 14,2 C 0,0 km/h (0 Bft) 0,00 %
04.08.2015 04:02 14,2 C 97 % 1015,9 hPa 0,0 l/m 0,0 km/h (0 Bft) NO 46 0 min 0,000 mm 0,0 UV-I 0 W/m 13,7 C 14,2 C 0,0 km/h (0 Bft) 0,00 %
04.08.2015 04:07 14,2 C 97 % 1015,9 hPa 0,0 l/m 0,0 km/h (0 Bft) NO 46 0 min 0,000 mm 0,0 UV-I 0 W/m 13,7 C 14,2 C 0,0 km/h (0 Bft) 0,00 %
04.08.2015 04:12 14,2 C 97 % 1015,9 hPa 0,0 l/m 0,0 km/h (0 Bft) NO 46 0 min 0,000 mm 0,0 UV-I 0 W/m 13,7 C 14,2 C 0,0 km/h (0 Bft) 0,00 %
04.08.2015 04:17 14,1 C 97 % 1015,9 hPa 0,0 l/m 0,0 km/h (0 Bft) NO 46 0 min 0,000 mm 0,0 UV-I 0 W/m 13,6 C 14,1 C 0,0 km/h (0 Bft) 0,00 %
04.08.2015 04:22 14,1 C 97 % 1015,9 hPa 0,0 l/m 0,0 km/h (0 Bft) NO 46 0 min 0,000 mm 0,0 UV-I 0 W/m 13,6 C 14,1 C 0,0 km/h (0 Bft) 0,00 %
04.08.2015 04:27 14,1 C 97 % 1015,8 hPa 0,0 l/m 0,0 km/h (0 Bft) NO 36 0 min 0,000 mm 0,0 UV-I 0 W/m 13,6 C 14,1 C 0,0 km/h (0 Bft) 0,00 %
04.08.2015 04:32 14,0 C 98 % 1015,9 hPa 0,0 l/m 0,0 km/h (0 Bft) NO 41 0 min 0,000 mm 0,0 UV-I 0 W/m 13,7 C 14,0 C 0,0 km/h (0 Bft) 0,00 %
04.08.2015 04:37 14,0 C 98 % 1015,9 hPa 0,0 l/m 0,0 km/h (0 Bft) NO 49 0 min 0,000 mm 0,0 UV-I 0 W/m 13,7 C 14,0 C 0,0 km/h (0 Bft) 0,00 %
04.08.2015 04:42 13,9 C 98 % 1016,0 hPa 0,0 l/m 0,0 km/h (0 Bft) NO 38 0 min 0,000 mm 0,0 UV-I 0 W/m 13,6 C 13,9 C 0,0 km/h (0 Bft) 0,00 %
04.08.2015 04:47 13,8 C 98 % 1016,0 hPa 0,0 l/m 0,0 km/h (0 Bft) N-NO 31 0 min 0,000 mm 0,0 UV-I 0 W/m 13,5 C 13,8 C 0,0 km/h (0 Bft) 0,00 %
04.08.2015 04:52 13,7 C 98 % 1015,8 hPa 0,0 l/m 0,0 km/h (0 Bft) N-NO 31 0 min 0,000 mm 0,0 UV-I 0 W/m 13,4 C 13,7 C 0,0 km/h (0 Bft) 0,00 %
04.08.2015 04:57 13,6 C 98 % 1015,7 hPa 0,0 l/m 0,0 km/h (0 Bft) NO 38 0 min 0,000 mm 0,0 UV-I 0 W/m 13,3 C 13,6 C 0,0 km/h (0 Bft) 0,00 %
04.08.2015 05:02 13,6 C 98 % 1015,7 hPa 0,0 l/m 0,0 km/h (0 Bft) NO 38 0 min 0,000 mm 0,0 UV-I 0 W/m 13,3 C 13,6 C 0,0 km/h (0 Bft) 0,00 %
04.08.2015 05:07 13,4 C 98 % 1015,7 hPa 0,0 l/m 0,0 km/h (0 Bft) NO 38 0 min 0,000 mm 0,0 UV-I 0 W/m 13,1 C 13,4 C 0,0 km/h (0 Bft) 0,00 %
04.08.2015 05:12 13,3 C 98 % 1015,6 hPa 0,0 l/m 0,0 km/h (0 Bft) NO 48 0 min 0,000 mm 0,0 UV-I 0 W/m 13,0 C 13,3 C 0,0 km/h (0 Bft) 0,00 %
04.08.2015 05:17 13,2 C 98 % 1015,7 hPa 0,0 l/m 0,0 km/h (0 Bft) NO 48 0 min 0,000 mm 0,0 UV-I 0 W/m 12,9 C 13,2 C 0,0 km/h (0 Bft) 0,00 %
04.08.2015 05:22 13,2 C 98 % 1015,5 hPa 0,0 l/m 0,0 km/h (0 Bft) NO 48 0 min 0,000 mm 0,0 UV-I 0 W/m 12,9 C 13,2 C 0,0 km/h (0 Bft) 0,00 %
04.08.2015 05:27 13,1 C 98 % 1015,5 hPa 0,0 l/m 0,0 km/h (0 Bft) NO 48 0 min 0,000 mm 0,0 UV-I 0 W/m 12,8 C 13,1 C 0,0 km/h (0 Bft) 0,00 %
04.08.2015 05:32 13,0 C 98 % 1015,7 hPa 0,0 l/m 0,0 km/h (0 Bft) NO 48 0 min 0,000 mm 0,0 UV-I 0 W/m 12,7 C 13,0 C 0,0 km/h (0 Bft) 0,00 %
04.08.2015 05:37 13,0 C 98 % 1015,6 hPa 0,0 l/m 0,0 km/h (0 Bft) NO 48 0 min 0,000 mm 0,0 UV-I 0 W/m 12,7 C 13,0 C 0,0 km/h (0 Bft) 0,00 %
04.08.2015 05:42 13,0 C 98 % 1015,8 hPa 0,0 l/m 0,0 km/h (0 Bft) NO 48 0 min 0,000 mm 0,0 UV-I 0 W/m 12,7 C 13,0 C 0,0 km/h (0 Bft) 0,00 %
04.08.2015 05:47 13,1 C 98 % 1015,6 hPa 0,0 l/m 0,0 km/h (0 Bft) NO 48 0 min 0,000 mm 0,0 UV-I 3 W/m 12,8 C 13,1 C 0,0 km/h (0 Bft) 0,00 %
04.08.2015 05:52 13,1 C 98 % 1015,6 hPa 0,0 l/m 0,0 km/h (0 Bft) NO 48 0 min 0,000 mm 0,0 UV-I 8 W/m 12,8 C 13,1 C 0,0 km/h (0 Bft) 0,00 %
04.08.2015 05:57 13,1 C 98 % 1015,6 hPa 0,0 l/m 0,0 km/h (0 Bft) NO 48 5 min 0,000 mm 0,0 UV-I 17 W/m 12,8 C 13,1 C 0,0 km/h (0 Bft) 0,00 %
04.08.2015 06:02 13,1 C 98 % 1015,7 hPa 0,0 l/m 0,0 km/h (0 Bft) NO 48 5 min 0,000 mm 0,0 UV-I 23 W/m 12,8 C 13,1 C 0,0 km/h (0 Bft) 0,00 %
04.08.2015 06:07 13,0 C 98 % 1015,6 hPa 0,0 l/m 0,0 km/h (0 Bft) NO 48 5 min 0,000 mm 0,0 UV-I 50 W/m 12,7 C 13,0 C 0,0 km/h (0 Bft) 0,00 %
04.08.2015 06:12 13,2 C 99 % 1015,7 hPa 0,0 l/m 0,0 km/h (0 Bft) NO 41 5 min 0,000 mm 0,0 UV-I 82 W/m 13,0 C 13,2 C 0,0 km/h (0 Bft) 0,00 %
04.08.2015 06:17 13,5 C 98 % 1015,7 hPa 0,0 l/m 0,0 km/h (0 Bft) NO 45 5 min 0,000 mm 0,0 UV-I 102 W/m 13,2 C 13,5 C 0,0 km/h (0 Bft) 0,00 %
04.08.2015 06:22 14,1 C 98 % 1015,7 hPa 0,0 l/m 0,0 km/h (0 Bft) NO 45 5 min 0,000 mm 0,0 UV-I 125 W/m 13,8 C 14,1 C 0,0 km/h (0 Bft) 0,00 %
04.08.2015 06:27 14,7 C 97 % 1015,6 hPa 0,0 l/m 0,0 km/h (0 Bft) N-NO 33 5 min 0,000 mm 0,0 UV-I 147 W/m 14,2 C 14,7 C 0,0 km/h (0 Bft) 0,00 %
04.08.2015 06:32 15,2 C 97 % 1015,7 hPa 0,0 l/m 0,0 km/h (0 Bft) NO 35 5 min 0,000 mm 0,0 UV-I 165 W/m 14,7 C 15,2 C 0,0 km/h (0 Bft) 0,00 %
04.08.2015 06:37 15,6 C 96 % 1015,6 hPa 0,0 l/m 0,0 km/h (0 Bft) NO 48 5 min 0,000 mm 0,0 UV-I 184 W/m 15,0 C 15,6 C 0,0 km/h (0 Bft) 0,00 %
04.08.2015 06:42 16,0 C 94 % 1015,6 hPa 0,0 l/m 0,0 km/h (0 Bft) NO 48 5 min 0,000 mm 0,0 UV-I 205 W/m 15,0 C 16,0 C 0,0 km/h (0 Bft) 0,00 %
04.08.2015 06:47 16,5 C 93 % 1015,7 hPa 0,0 l/m 0,0 km/h (0 Bft) NO 48 5 min 0,000 mm 0,0 UV-I 225 W/m 15,4 C 16,5 C 0,0 km/h (0 Bft) 0,00 %
04.08.2015 06:52 17,2 C 89 % 1015,7 hPa 0,0 l/m 0,0 km/h (0 Bft) NO 36 5 min 0,000 mm 0,0 UV-I 242 W/m 15,4 C 17,2 C 0,0 km/h (0 Bft) 0,00 %
04.08.2015 06:57 17,9 C 83 % 1015,8 hPa 0,0 l/m 0,0 km/h (0 Bft) NO 36 5 min 0,000 mm 0,0 UV-I 256 W/m 15,0 C 17,9 C 0,0 km/h (0 Bft) 0,00 %
04.08.2015 07:02 18,6 C 79 % 1015,6 hPa 0,0 l/m 0,0 km/h (0 Bft) NO 41 5 min 0,000 mm 1,0 UV-I 268 W/m 14,9 C 18,6 C 0,0 km/h (0 Bft) 0,00 %
04.08.2015 07:07 19,2 C 76 % 1015,7 hPa 0,0 l/m 0,0 km/h (0 Bft) O-NO 68 5 min 0,000 mm 1,0 UV-I 280 W/m 14,9 C 19,2 C 0,0 km/h (0 Bft) 0,00 %
04.08.2015 07:12 19,8 C 73 % 1015,5 hPa 0,0 l/m 0,0 km/h (0 Bft) NO 38 5 min 0,000 mm 1,0 UV-I 285 W/m 14,8 C 19,8 C 0,0 km/h (0 Bft) 0,00 %
04.08.2015 07:17 20,4 C 70 % 1015,6 hPa 0,0 l/m 0,0 km/h (0 Bft) NO 39 5 min 0,000 mm 1,0 UV-I 289 W/m 14,7 C 20,4 C 0,0 km/h (0 Bft) 0,00 %
04.08.2015 07:22 20,9 C 69 % 1015,7 hPa 0,0 l/m 0,0 km/h (0 Bft) NO 40 5 min 0,000 mm 1,0 UV-I 293 W/m 15,0 C 20,9 C 0,0 km/h (0 Bft) 0,00 %
04.08.2015 07:27 21,4 C 68 % 1015,7 hPa 0,0 l/m 0,0 km/h (0 Bft) NO 46 5 min 0,000 mm 1,0 UV-I 298 W/m 15,2 C 21,4 C 0,0 km/h (0 Bft) 0,00 %
04.08.2015 07:32 21,6 C 66 % 1015,5 hPa 0,0 l/m 0,0 km/h (0 Bft) O-NO 58 5 min 0,000 mm 1,0 UV-I 299 W/m 15,0 C 21,6 C 0,0 km/h (0 Bft) 0,00 %
04.08.2015 07:37 21,6 C 67 % 1015,6 hPa 0,0 l/m 0,0 km/h (0 Bft) O 94 5 min 0,000 mm 1,0 UV-I 300 W/m 15,2 C 21,6 C 0,0 km/h (0 Bft) 0,00 %
04.08.2015 07:42 21,6 C 67 % 1015,7 hPa 0,0 l/m 0,0 km/h (0 Bft) O-NO 68 5 min 0,000 mm 1,0 UV-I 299 W/m 15,2 C 21,6 C 0,0 km/h (0 Bft) 0,00 %
04.08.2015 07:47 21,6 C 67 % 1015,6 hPa 0,0 l/m 0,0 km/h (0 Bft) O-NO 62 5 min 0,000 mm 1,0 UV-I 302 W/m 15,2 C 21,6 C 0,0 km/h (0 Bft) 0,00 %
04.08.2015 07:52 21,5 C 68 % 1015,7 hPa 0,0 l/m 0,0 km/h (0 Bft) O-NO 57 5 min 0,000 mm 1,0 UV-I 302 W/m 15,3 C 21,5 C 0,0 km/h (0 Bft) 0,00 %
04.08.2015 07:57 21,7 C 67 % 1015,5 hPa 0,0 l/m 0,0 km/h (0 Bft) NO 40 5 min 0,000 mm 1,0 UV-I 306 W/m 15,3 C 21,7 C 0,0 km/h (0 Bft) 0,00 %
04.08.2015 08:02 21,9 C 67 % 1015,7 hPa 0,0 l/m 0,7 km/h (0 Bft) O 82 5 min 0,000 mm 1,0 UV-I 310 W/m 15,5 C 21,9 C 4,0 km/h (1 Bft) 0,00 %
04.08.2015 08:07 21,9 C 67 % 1015,5 hPa 0,0 l/m 0,4 km/h (0 Bft) N-NO 27 5 min 0,000 mm 1,0 UV-I 312 W/m 15,5 C 21,9 C 4,0 km/h (1 Bft) 0,00 %
04.08.2015 08:12 21,8 C 69 % 1015,6 hPa 0,0 l/m 0,0 km/h (0 Bft) O-NO 71 5 min 0,000 mm 1,0 UV-I 315 W/m 15,9 C 21,8 C 0,0 km/h (0 Bft) 0,00 %
04.08.2015 08:17 21,8 C 70 % 1015,7 hPa 0,0 l/m 0,0 km/h (0 Bft) O-SO 119 5 min 0,000 mm 1,0 UV-I 320 W/m 16,1 C 21,8 C 0,0 km/h (0 Bft) 0,00 %
04.08.2015 08:22 22,0 C 68 % 1015,6 hPa 0,0 l/m 0,0 km/h (0 Bft) O-NO 69 5 min 0,000 mm 1,0 UV-I 330 W/m 15,8 C 22,0 C 0,0 km/h (0 Bft) 0,00 %
04.08.2015 08:27 22,3 C 67 % 1015,6 hPa 0,0 l/m 0,0 km/h (0 Bft) NO 52 5 min 0,000 mm 1,0 UV-I 331 W/m 15,9 C 22,3 C 0,0 km/h (0 Bft) 0,00 %
04.08.2015 08:32 22,5 C 68 % 1015,6 hPa 0,0 l/m 0,0 km/h (0 Bft) NO 49 5 min 0,000 mm 1,0 UV-I 341 W/m 16,3 C 22,5 C 0,0 km/h (0 Bft) 0,00 %
04.08.2015 08:37 22,7 C 65 % 1015,4 hPa 0,0 l/m 0,0 km/h (0 Bft) N-NO 24 5 min 0,000 mm 1,0 UV-I 349 W/m 15,8 C 22,7 C 0,0 km/h (0 Bft) 0,00 %
04.08.2015 08:42 23,2 C 64 % 1015,6 hPa 0,0 l/m 0,0 km/h (0 Bft) NO 40 5 min 0,000 mm 1,0 UV-I 359 W/m 16,0 C 23,2 C 0,0 km/h (0 Bft) 0,00 %
04.08.2015 08:47 23,6 C 62 % 1015,6 hPa 0,0 l/m 0,0 km/h (0 Bft) O-NO 57 5 min 0,000 mm 1,0 UV-I 367 W/m 15,9 C 23,6 C 0,0 km/h (0 Bft) 0,00 %
04.08.2015 08:52 23,9 C 61 % 1015,4 hPa 0,0 l/m 1,8 km/h (1 Bft) O 100 5 min 0,000 mm 1,0 UV-I 376 W/m 15,9 C 23,9 C 4,0 km/h (1 Bft) 0,00 %
04.08.2015 08:57 23,9 C 63 % 1015,5 hPa 0,0 l/m 1,4 km/h (1 Bft) O-SO 106 5 min 0,000 mm 1,0 UV-I 381 W/m 16,4 C 23,9 C 4,0 km/h (1 Bft) 0,00 %
04.08.2015 09:02 23,9 C 61 % 1015,5 hPa 0,0 l/m 0,0 km/h (0 Bft) NO 43 5 min 0,000 mm 2,0 UV-I 392 W/m 15,9 C 23,9 C 0,0 km/h (0 Bft) 0,00 %
04.08.2015 09:07 24,1 C 61 % 1015,2 hPa 0,0 l/m 3,2 km/h (1 Bft) O-SO 123 5 min 0,000 mm 2,0 UV-I 403 W/m 16,1 C 24,1 C 4,0 km/h (1 Bft) 0,00 %
04.08.2015 09:12 24,4 C 60 % 1015,5 hPa 0,0 l/m 0,0 km/h (0 Bft) NO 54 5 min 0,000 mm 2,0 UV-I 388 W/m 16,1 C 24,4 C 0,0 km/h (0 Bft) 0,00 %
04.08.2015 09:17 24,7 C 59 % 1015,5 hPa 0,0 l/m 0,0 km/h (0 Bft) O-NO 68 5 min 0,000 mm 2,0 UV-I 422 W/m 16,1 C 24,7 C 0,0 km/h (0 Bft) 0,00 %
04.08.2015 09:22 25,0 C 58 % 1015,4 hPa 0,0 l/m 0,0 km/h (0 Bft) NO 53 5 min 0,000 mm 2,0 UV-I 436 W/m 16,1 C 25,0 C 0,0 km/h (0 Bft) 0,00 %
04.08.2015 09:27 25,4 C 57 % 1015,5 hPa 0,0 l/m 0,0 km/h (0 Bft) N-NO 31 5 min 0,000 mm 2,0 UV-I 449 W/m 16,2 C 25,4 C 0,0 km/h (0 Bft) 0,00 %
04.08.2015 09:32 25,7 C 56 % 1015,6 hPa 0,0 l/m 0,7 km/h (0 Bft) O-NO 71 5 min 0,000 mm 2,0 UV-I 462 W/m 16,2 C 25,7 C 4,0 km/h (1 Bft) 0,00 %
04.08.2015 09:37 25,9 C 53 % 1015,6 hPa 0,0 l/m 0,0 km/h (0 Bft) O-NO 61 5 min 0,000 mm 2,0 UV-I 472 W/m 15,6 C 25,9 C 0,0 km/h (0 Bft) 0,00 %
04.08.2015 09:42 26,0 C 54 % 1015,6 hPa 0,0 l/m 0,0 km/h (0 Bft) N-NO 12 5 min 0,000 mm 2,0 UV-I 484 W/m 16,0 C 26,0 C 0,0 km/h (0 Bft) 0,00 %
04.08.2015 09:47 26,0 C 53 % 1015,3 hPa 0,0 l/m 2,2 km/h (1 Bft) O-SO 119 5 min 0,000 mm 2,0 UV-I 498 W/m 15,7 C 26,0 C 4,0 km/h (1 Bft) 0,00 %
04.08.2015 09:52 26,0 C 53 % 1015,3 hPa 0,0 l/m 0,0 km/h (0 Bft) O-NO 75 5 min 0,000 mm 2,0 UV-I 511 W/m 15,7 C 26,0 C 0,0 km/h (0 Bft) 0,00 %
04.08.2015 09:57 26,2 C 53 % 1015,5 hPa 0,0 l/m 3,2 km/h (1 Bft) O 89 5 min 0,000 mm 2,0 UV-I 520 W/m 15,8 C 26,2 C 4,0 km/h (1 Bft) 0,00 %
04.08.2015 10:02 26,4 C 56 % 1015,4 hPa 0,0 l/m 0,0 km/h (0 Bft) N 350 5 min 0,000 mm 2,0 UV-I 531 W/m 16,9 C 26,4 C 0,0 km/h (0 Bft) 0,00 %
04.08.2015 10:07 26,6 C 52 % 1015,3 hPa 0,0 l/m 0,7 km/h (0 Bft) O-NO 71 5 min 0,000 mm 2,0 UV-I 540 W/m 15,9 C 26,6 C 4,0 km/h (1 Bft) 0,00 %
04.08.2015 10:12 26,7 C 52 % 1015,2 hPa 0,0 l/m 2,2 km/h (1 Bft) O 88 5 min 0,000 mm 2,0 UV-I 559 W/m 16,0 C 26,7 C 4,0 km/h (1 Bft) 0,00 %
04.08.2015 10:17 26,8 C 51 % 1015,2 hPa 0,0 l/m 1,8 km/h (1 Bft) O 91 5 min 0,000 mm 2,0 UV-I 570 W/m 15,8 C 26,8 C 4,0 km/h (1 Bft) 0,00 %
04.08.2015 10:22 26,7 C 54 % 1015,0 hPa 0,0 l/m 0,7 km/h (0 Bft) NO 51 5 min 0,000 mm 2,0 UV-I 578 W/m 16,6 C 26,7 C 4,0 km/h (1 Bft) 0,00 %
04.08.2015 10:27 26,7 C 54 % 1015,1 hPa 0,0 l/m 1,8 km/h (1 Bft) N 3 5 min 0,000 mm 3,0 UV-I 596 W/m 16,6 C 26,7 C 4,0 km/h (1 Bft) 0,00 %
04.08.2015 10:32 26,8 C 52 % 1015,0 hPa 0,0 l/m 2,2 km/h (1 Bft) NO 46 5 min 0,000 mm 3,0 UV-I 610 W/m 16,1 C 26,8 C 4,0 km/h (1 Bft) 0,00 %
04.08.2015 10:37 27,0 C 53 % 1015,0 hPa 0,0 l/m 1,4 km/h (1 Bft) O-SO 102 5 min 0,000 mm 3,0 UV-I 618 W/m 16,6 C 27,0 C 4,0 km/h (1 Bft) 0,00 %
04.08.2015 10:42 27,4 C 51 % 1014,9 hPa 0,0 l/m 0,0 km/h (0 Bft) NO 49 5 min 0,000 mm 3,0 UV-I 633 W/m 16,3 C 27,4 C 0,0 km/h (0 Bft) 0,00 %
04.08.2015 10:47 27,9 C 49 % 1014,8 hPa 0,0 l/m 0,4 km/h (0 Bft) NO 36 5 min 0,000 mm 3,0 UV-I 652 W/m 16,2 C 27,9 C 4,0 km/h (1 Bft) 0,00 %
04.08.2015 10:52 28,0 C 52 % 1014,8 hPa 0,0 l/m 0,0 km/h (0 Bft) N-NW 336 5 min 0,000 mm 3,0 UV-I 666 W/m 17,2 C 28,0 C 0,0 km/h (0 Bft) 0,00 %
04.08.2015 10:57 27,9 C 51 % 1014,8 hPa 0,0 l/m 2,2 km/h (1 Bft) SO 146 5 min 0,000 mm 3,0 UV-I 672 W/m 16,8 C 27,9 C 4,0 km/h (1 Bft) 0,00 %
04.08.2015 11:02 27,9 C 48 % 1014,8 hPa 0,0 l/m 0,0 km/h (0 Bft) O 89 5 min 0,000 mm 3,0 UV-I 676 W/m 15,9 C 27,9 C 0,0 km/h (0 Bft) 0,00 %
04.08.2015 11:07 28,2 C 47 % 1014,9 hPa 0,0 l/m 0,0 km/h (0 Bft) O-NO 63 5 min 0,000 mm 3,0 UV-I 686 W/m 15,8 C 28,2 C 0,0 km/h (0 Bft) 0,00 %
04.08.2015 11:12 28,2 C 50 % 1014,7 hPa 0,0 l/m 2,2 km/h (1 Bft) O-SO 112 5 min 0,000 mm 4,0 UV-I 699 W/m 16,8 C 28,2 C 4,0 km/h (1 Bft) 0,00 %
04.08.2015 11:17 28,2 C 49 % 1014,6 hPa 0,0 l/m 1,8 km/h (1 Bft) SO 124 5 min 0,000 mm 4,0 UV-I 715 W/m 16,5 C 28,2 C 4,0 km/h (1 Bft) 0,00 %
04.08.2015 11:22 28,4 C 48 % 1014,6 hPa 0,0 l/m 4,3 km/h (1 Bft) O 80 5 min 0,000 mm 4,0 UV-I 729 W/m 16,3 C 28,4 C 7,9 km/h (2 Bft) 0,00 %
04.08.2015 11:27 28,5 C 48 % 1014,7 hPa 0,0 l/m 0,0 km/h (0 Bft) NO 47 5 min 0,000 mm 4,0 UV-I 740 W/m 16,4 C 28,5 C 0,0 km/h (0 Bft) 0,00 %
04.08.2015 11:32 28,7 C 46 % 1014,6 hPa 0,0 l/m 6,5 km/h (2 Bft) NO 53 5 min 0,000 mm 4,0 UV-I 747 W/m 15,9 C 28,7 C 7,9 km/h (2 Bft) 0,00 %
04.08.2015 11:37 28,8 C 49 % 1014,6 hPa 0,0 l/m 1,4 km/h (1 Bft) NO 52 5 min 0,000 mm 4,0 UV-I 756 W/m 17,0 C 28,8 C 4,0 km/h (1 Bft) 0,00 %
04.08.2015 11:42 28,7 C 47 % 1014,5 hPa 0,0 l/m 6,5 km/h (2 Bft) SO 129 5 min 0,000 mm 4,0 UV-I 770 W/m 16,3 C 28,7 C 7,9 km/h (2 Bft) 0,00 %
04.08.2015 11:47 28,8 C 46 % 1014,7 hPa 0,0 l/m 0,0 km/h (0 Bft) NO 45 5 min 0,000 mm 4,0 UV-I 776 W/m 16,0 C 28,8 C 0,0 km/h (0 Bft) 0,00 %
04.08.2015 11:52 29,0 C 46 % 1014,6 hPa 0,0 l/m 0,0 km/h (0 Bft) NO 55 5 min 0,000 mm 4,0 UV-I 784 W/m 16,2 C 29,0 C 0,0 km/h (0 Bft) 0,00 %
04.08.2015 11:57 29,3 C 45 % 1014,6 hPa 0,0 l/m 4,7 km/h (1 Bft) O-SO 106 5 min 0,000 mm 4,0 UV-I 802 W/m 16,1 C 29,3 C 7,9 km/h (2 Bft) 0,00 %
04.08.2015 12:02 29,3 C 45 % 1014,4 hPa 0,0 l/m 4,0 km/h (1 Bft) O-NO 73 5 min 0,000 mm 4,0 UV-I 807 W/m 16,1 C 29,3 C 4,0 km/h (1 Bft) 0,00 %
04.08.2015 12:08 29,3 C 47 % 1014,6 hPa 0,0 l/m 0,0 km/h (0 Bft) NO 37 6 min 0,000 mm 4,0 UV-I 798 W/m 16,8 C 29,3 C 0,0 km/h (0 Bft) 0,00 %
04.08.2015 12:13 29,3 C 45 % 1014,5 hPa 0,0 l/m 0,0 km/h (0 Bft) N-NO 25 5 min 0,000 mm 5,0 UV-I 814 W/m 16,1 C 29,3 C 0,0 km/h (0 Bft) 0,00 %
04.08.2015 12:18 29,4 C 44 % 1014,6 hPa 0,0 l/m 5,4 km/h (1 Bft) SO 130 5 min 0,000 mm 5,0 UV-I 826 W/m 15,8 C 29,4 C 7,9 km/h (2 Bft) 0,00 %
04.08.2015 12:23 29,4 C 46 % 1014,3 hPa 0,0 l/m 4,3 km/h (1 Bft) SO 129 5 min 0,000 mm 5,0 UV-I 820 W/m 16,5 C 29,4 C 7,9 km/h (2 Bft) 0,00 %
04.08.2015 12:28 29,4 C 44 % 1014,3 hPa 0,0 l/m 0,0 km/h (0 Bft) N-NO 26 5 min 0,000 mm 5,0 UV-I 834 W/m 15,8 C 29,4 C 0,0 km/h (0 Bft) 0,00 %
04.08.2015 12:33 29,6 C 41 % 1014,3 hPa 0,0 l/m 1,4 km/h (1 Bft) O-NO 77 5 min 0,000 mm 5,0 UV-I 841 W/m 14,9 C 29,6 C 4,0 km/h (1 Bft) 0,00 %
04.08.2015 12:38 29,6 C 43 % 1014,3 hPa 0,0 l/m 1,4 km/h (1 Bft) O 95 5 min 0,000 mm 5,0 UV-I 847 W/m 15,7 C 29,6 C 4,0 km/h (1 Bft) 0,00 %
04.08.2015 12:43 29,7 C 43 % 1014,0 hPa 0,0 l/m 1,4 km/h (1 Bft) NO 49 5 min 0,000 mm 5,0 UV-I 856 W/m 15,8 C 29,7 C 4,0 km/h (1 Bft) 0,00 %
04.08.2015 12:48 29,8 C 42 % 1014,2 hPa 0,0 l/m 0,0 km/h (0 Bft) SO 136 5 min 0,000 mm 5,0 UV-I 860 W/m 15,5 C 29,8 C 0,0 km/h (0 Bft) 0,00 %
04.08.2015 12:53 29,8 C 41 % 1014,0 hPa 0,0 l/m 0,0 km/h (0 Bft) N-NO 27 5 min 0,000 mm 5,0 UV-I 862 W/m 15,1 C 29,8 C 0,0 km/h (0 Bft) 0,00 %
04.08.2015 12:58 29,9 C 40 % 1013,9 hPa 0,0 l/m 0,0 km/h (0 Bft) NO 41 5 min 0,000 mm 5,0 UV-I 879 W/m 14,8 C 29,9 C 0,0 km/h (0 Bft) 0,00 %
04.08.2015 13:03 30,1 C 38 % 1014,0 hPa 0,0 l/m 4,3 km/h (1 Bft) O-SO 102 5 min 0,000 mm 5,0 UV-I 880 W/m 14,2 C 30,1 C 7,9 km/h (2 Bft) 0,00 %
04.08.2015 13:08 30,3 C 37 % 1014,0 hPa 0,0 l/m 3,2 km/h (1 Bft) O-SO 122 5 min 0,000 mm 5,0 UV-I 880 W/m 14,0 C 30,3 C 7,9 km/h (2 Bft) 0,00 %
04.08.2015 13:13 30,4 C 39 % 1014,0 hPa 0,0 l/m 0,0 km/h (0 Bft) O-NO 73 5 min 0,000 mm 5,0 UV-I 883 W/m 14,9 C 30,4 C 0,0 km/h (0 Bft) 0,00 %
04.08.2015 13:18 30,5 C 38 % 1013,8 hPa 0,0 l/m 8,3 km/h (2 Bft) O-SO 120 5 min 0,000 mm 5,0 UV-I 881 W/m 14,5 C 30,4 C 11,9 km/h (2 Bft) 0,00 %
04.08.2015 13:23 30,3 C 39 % 1013,9 hPa 0,0 l/m 0,0 km/h (0 Bft) NO 55 5 min 0,000 mm 5,0 UV-I 885 W/m 14,8 C 30,3 C 0,0 km/h (0 Bft) 0,00 %
04.08.2015 13:28 30,3 C 36 % 1013,7 hPa 0,0 l/m 0,0 km/h (0 Bft) O 84 5 min 0,000 mm 5,0 UV-I 901 W/m 13,5 C 30,3 C 0,0 km/h (0 Bft) 0,00 %
04.08.2015 13:33 30,5 C 33 % 1013,8 hPa 0,0 l/m 0,0 km/h (0 Bft) O-NO 58 5 min 0,000 mm 5,0 UV-I 908 W/m 12,4 C 30,5 C 0,0 km/h (0 Bft) 0,00 %
04.08.2015 13:38 30,7 C 32 % 1013,6 hPa 0,0 l/m 3,2 km/h (1 Bft) SO 143 5 min 0,000 mm 5,0 UV-I 920 W/m 12,1 C 30,7 C 7,9 km/h (2 Bft) 0,00 %
04.08.2015 13:43 30,9 C 32 % 1013,8 hPa 0,0 l/m 0,0 km/h (0 Bft) O 97 5 min 0,000 mm 5,0 UV-I 926 W/m 12,3 C 30,9 C 0,0 km/h (0 Bft) 0,00 %
04.08.2015 13:48 31,1 C 33 % 1013,5 hPa 0,0 l/m 0,0 km/h (0 Bft) NO 52 5 min 0,000 mm 4,0 UV-I 927 W/m 12,9 C 31,1 C 0,0 km/h (0 Bft) 0,00 %
04.08.2015 13:53 31,3 C 32 % 1013,6 hPa 0,0 l/m 0,0 km/h (0 Bft) NO 36 5 min 0,000 mm 4,0 UV-I 937 W/m 12,6 C 31,3 C 0,0 km/h (0 Bft) 0,00 %
04.08.2015 13:58 31,4 C 30 % 1013,4 hPa 0,0 l/m 1,8 km/h (1 Bft) N-NW 347 5 min 0,000 mm 4,0 UV-I 927 W/m 11,7 C 31,4 C 4,0 km/h (1 Bft) 0,00 %
04.08.2015 14:03 31,4 C 30 % 1013,3 hPa 0,0 l/m 0,0 km/h (0 Bft) NO 50 5 min 0,000 mm 4,0 UV-I 930 W/m 11,7 C 31,4 C 0,0 km/h (0 Bft) 0,00 %
04.08.2015 14:08 31,5 C 31 % 1013,3 hPa 0,0 l/m 0,0 km/h (0 Bft) O-NO 67 5 min 0,000 mm 4,0 UV-I 933 W/m 12,3 C 31,5 C 0,0 km/h (0 Bft) 0,00 %
04.08.2015 14:13 31,6 C 30 % 1013,4 hPa 0,0 l/m 0,0 km/h (0 Bft) N 352 5 min 0,000 mm 4,0 UV-I 934 W/m 11,9 C 31,6 C 0,0 km/h (0 Bft) 0,00 %
04.08.2015 14:18 31,7 C 31 % 1013,4 hPa 0,0 l/m 0,0 km/h (0 Bft) O 87 5 min 0,000 mm 4,0 UV-I 943 W/m 12,5 C 31,7 C 0,0 km/h (0 Bft) 0,00 %
04.08.2015 14:23 31,9 C 34 % 1013,3 hPa 0,0 l/m 7,2 km/h (2 Bft) NW 317 5 min 0,000 mm 4,0 UV-I 952 W/m 14,1 C 31,9 C 7,9 km/h (2 Bft) 0,00 %
04.08.2015 14:28 31,9 C 30 % 1013,3 hPa 0,0 l/m 0,4 km/h (0 Bft) O-NO 59 5 min 0,000 mm 4,0 UV-I 941 W/m 12,1 C 31,9 C 4,0 km/h (1 Bft) 0,00 %
04.08.2015 14:33 31,9 C 33 % 1013,2 hPa 0,0 l/m 2,2 km/h (1 Bft) N-NW 344 5 min 0,000 mm 4,0 UV-I 951 W/m 13,6 C 31,9 C 4,0 km/h (1 Bft) 0,00 %
04.08.2015 14:38 31,9 C 32 % 1013,2 hPa 0,0 l/m 0,0 km/h (0 Bft) NO 38 5 min 0,000 mm 4,0 UV-I 959 W/m 13,1 C 31,9 C 0,0 km/h (0 Bft) 0,00 %
04.08.2015 14:43 32,0 C 32 % 1013,1 hPa 0,0 l/m 2,9 km/h (1 Bft) NW 310 5 min 0,000 mm 4,0 UV-I 962 W/m 13,2 C 32,0 C 4,0 km/h (1 Bft) 0,00 %
04.08.2015 14:48 32,1 C 32 % 1013,1 hPa 0,0 l/m 0,4 km/h (0 Bft) O-NO 62 5 min 0,000 mm 4,0 UV-I 963 W/m 13,3 C 32,1 C 4,0 km/h (1 Bft) 0,00 %
04.08.2015 14:53 32,1 C 32 % 1013,2 hPa 0,0 l/m 0,7 km/h (0 Bft) N-NW 329 5 min 0,000 mm 4,0 UV-I 974 W/m 13,3 C 32,1 C 4,0 km/h (1 Bft) 0,00 %
04.08.2015 14:58 32,3 C 32 % 1013,2 hPa 0,0 l/m 0,0 km/h (0 Bft) S-SW 199 5 min 0,000 mm 4,0 UV-I 980 W/m 13,5 C 32,3 C 0,0 km/h (0 Bft) 0,00 %
04.08.2015 15:03 32,6 C 32 % 1013,1 hPa 0,0 l/m 0,0 km/h (0 Bft) NO 36 5 min 0,000 mm 4,0 UV-I 981 W/m 13,7 C 32,6 C 0,0 km/h (0 Bft) 0,00 %
04.08.2015 15:08 32,5 C 34 % 1013,0 hPa 0,0 l/m 0,0 km/h (0 Bft) NO 50 5 min 0,000 mm 4,0 UV-I 982 W/m 14,6 C 32,5 C 0,0 km/h (0 Bft) 0,00 %
04.08.2015 15:13 32,5 C 32 % 1013,1 hPa 0,0 l/m 0,4 km/h (0 Bft) N 351 5 min 0,000 mm 4,0 UV-I 982 W/m 13,6 C 32,5 C 4,0 km/h (1 Bft) 0,00 %
04.08.2015 15:18 32,7 C 32 % 1013,0 hPa 0,0 l/m 0,4 km/h (0 Bft) W-NW 284 5 min 0,000 mm 4,0 UV-I 966 W/m 13,8 C 32,7 C 4,0 km/h (1 Bft) 0,00 %
04.08.2015 15:23 32,8 C 32 % 1013,0 hPa 0,0 l/m 0,0 km/h (0 Bft) N-NW 328 5 min 0,000 mm 4,0 UV-I 975 W/m 13,9 C 32,8 C 0,0 km/h (0 Bft) 0,00 %
04.08.2015 15:28 33,0 C 29 % 1013,0 hPa 0,0 l/m 4,7 km/h (1 Bft) W-NW 296 5 min 0,000 mm 3,0 UV-I 977 W/m 12,6 C 33,0 C 7,9 km/h (2 Bft) 0,00 %
04.08.2015 15:33 33,2 C 32 % 1012,8 hPa 0,0 l/m 0,0 km/h (0 Bft) O-NO 69 5 min 0,000 mm 3,0 UV-I 976 W/m 14,2 C 33,2 C 0,0 km/h (0 Bft) 0,00 %
04.08.2015 15:38 33,2 C 31 % 1012,8 hPa 0,0 l/m 0,0 km/h (0 Bft) N-NO 33 5 min 0,000 mm 3,0 UV-I 965 W/m 13,8 C 33,2 C 0,0 km/h (0 Bft) 0,00 %
04.08.2015 15:43 33,2 C 32 % 1012,8 hPa 0,0 l/m 0,0 km/h (0 Bft) N-NW 339 5 min 0,000 mm 3,0 UV-I 989 W/m 14,2 C 33,2 C 0,0 km/h (0 Bft) 0,00 %
04.08.2015 15:48 33,4 C 28 % 1013,0 hPa 0,0 l/m 0,0 km/h (0 Bft) O-NO 77 5 min 0,000 mm 3,0 UV-I 986 W/m 12,4 C 33,4 C 0,0 km/h (0 Bft) 0,00 %
04.08.2015 15:53 33,4 C 31 % 1012,7 hPa 0,0 l/m 0,0 km/h (0 Bft) N-NW 344 5 min 0,000 mm 3,0 UV-I 897 W/m 13,9 C 33,4 C 0,0 km/h (0 Bft) 0,00 %
04.08.2015 15:58 33,4 C 32 % 1012,9 hPa 0,0 l/m 0,0 km/h (0 Bft) NO 37 5 min 0,000 mm 3,0 UV-I 834 W/m 14,4 C 33,4 C 0,0 km/h (0 Bft) 0,00 %
04.08.2015 16:03 33,2 C 32 % 1012,8 hPa 0,0 l/m 0,0 km/h (0 Bft) NO 44 5 min 0,000 mm 3,0 UV-I 966 W/m 14,2 C 33,2 C 0,0 km/h (0 Bft) 0,00 %
04.08.2015 16:08 32,8 C 32 % 1012,7 hPa 0,0 l/m 0,0 km/h (0 Bft) N 352 5 min 0,000 mm 3,0 UV-I 955 W/m 13,9 C 32,8 C 0,0 km/h (0 Bft) 0,00 %
04.08.2015 16:13 32,7 C 32 % 1012,7 hPa 0,0 l/m 4,7 km/h (1 Bft) W-NW 283 5 min 0,000 mm 2,0 UV-I 776 W/m 13,8 C 32,7 C 7,9 km/h (2 Bft) 0,00 %
04.08.2015 16:18 32,6 C 33 % 1012,8 hPa 0,0 l/m 5,4 km/h (1 Bft) W-NW 297 5 min 0,000 mm 2,0 UV-I 813 W/m 14,2 C 32,6 C 7,9 km/h (2 Bft) 0,00 %
04.08.2015 16:23 32,4 C 32 % 1012,8 hPa 0,0 l/m 2,9 km/h (1 Bft) N-NW 335 5 min 0,000 mm 2,0 UV-I 586 W/m 13,6 C 32,4 C 4,0 km/h (1 Bft) 0,00 %
04.08.2015 16:28 32,2 C 32 % 1012,8 hPa 0,0 l/m 0,7 km/h (0 Bft) W-NW 295 5 min 0,000 mm 2,0 UV-I 694 W/m 13,4 C 32,2 C 4,0 km/h (1 Bft) 0,00 %
04.08.2015 16:33 32,1 C 34 % 1012,7 hPa 0,0 l/m 0,7 km/h (0 Bft) N-NO 21 5 min 0,000 mm 1,0 UV-I 691 W/m 14,2 C 32,1 C 4,0 km/h (1 Bft) 0,00 %
04.08.2015 16:38 32,1 C 34 % 1012,8 hPa 0,0 l/m 0,0 km/h (0 Bft) NW 317 5 min 0,000 mm 1,0 UV-I 440 W/m 14,2 C 32,1 C 0,0 km/h (0 Bft) 0,00 %
04.08.2015 16:43 31,9 C 30 % 1012,8 hPa 0,0 l/m 1,8 km/h (1 Bft) W-SW 256 5 min 0,000 mm 1,0 UV-I 560 W/m 12,1 C 31,9 C 4,0 km/h (1 Bft) 0,00 %
04.08.2015 16:48 31,4 C 32 % 1012,7 hPa 0,0 l/m 0,0 km/h (0 Bft) NO 43 5 min 0,000 mm 1,0 UV-I 756 W/m 12,7 C 31,4 C 0,0 km/h (0 Bft) 0,00 %
04.08.2015 16:53 31,1 C 33 % 1012,9 hPa 0,0 l/m 2,2 km/h (1 Bft) W-NW 297 5 min 0,000 mm 1,0 UV-I 828 W/m 12,9 C 31,1 C 4,0 km/h (1 Bft) 0,00 %
04.08.2015 16:58 31,2 C 30 % 1013,0 hPa 0,0 l/m 6,8 km/h (2 Bft) NW 314 5 min 0,000 mm 1,0 UV-I 918 W/m 11,5 C 31,2 C 7,9 km/h (2 Bft) 0,00 %
04.08.2015 17:03 31,5 C 30 % 1012,8 hPa 0,0 l/m 0,0 km/h (0 Bft) N 6 5 min 0,000 mm 1,0 UV-I 668 W/m 11,8 C 31,5 C 0,0 km/h (0 Bft) 0,00 %
04.08.2015 17:08 31,8 C 33 % 1012,9 hPa 0,0 l/m 0,0 km/h (0 Bft) N-NO 17 5 min 0,000 mm 1,0 UV-I 392 W/m 13,5 C 31,8 C 0,0 km/h (0 Bft) 0,00 %
04.08.2015 17:13 31,9 C 31 % 1012,9 hPa 0,0 l/m 0,4 km/h (0 Bft) N-NW 338 5 min 0,000 mm 1,0 UV-I 773 W/m 12,6 C 31,9 C 4,0 km/h (1 Bft) 0,00 %
04.08.2015 17:18 31,7 C 33 % 1012,9 hPa 0,0 l/m 1,4 km/h (1 Bft) N 355 5 min 0,000 mm 1,0 UV-I 862 W/m 13,4 C 31,7 C 4,0 km/h (1 Bft) 0,00 %
04.08.2015 17:23 31,5 C 32 % 1012,8 hPa 0,0 l/m 9,0 km/h (2 Bft) W-NW 302 5 min 0,000 mm 1,0 UV-I 843 W/m 12,8 C 31,4 C 15,8 km/h (3 Bft) 0,00 %
04.08.2015 17:28 31,5 C 33 % 1012,7 hPa 0,0 l/m 0,0 km/h (0 Bft) NO 51 5 min 0,000 mm 1,0 UV-I 835 W/m 13,2 C 31,5 C 0,0 km/h (0 Bft) 0,00 %
04.08.2015 17:33 31,5 C 33 % 1013,0 hPa 0,0 l/m 4,3 km/h (1 Bft) W-NW 287 5 min 0,000 mm 1,0 UV-I 832 W/m 13,2 C 31,5 C 7,9 km/h (2 Bft) 0,00 %
04.08.2015 17:38 31,5 C 31 % 1012,8 hPa 0,0 l/m 0,0 km/h (0 Bft) NO 36 5 min 0,000 mm 1,0 UV-I 826 W/m 12,3 C 31,5 C 0,0 km/h (0 Bft) 0,00 %
04.08.2015 17:43 31,6 C 33 % 1012,8 hPa 0,0 l/m 0,0 km/h (0 Bft) O-NO 62 5 min 0,000 mm 1,0 UV-I 815 W/m 13,3 C 31,6 C 0,0 km/h (0 Bft) 0,00 %
04.08.2015 17:48 31,7 C 34 % 1012,9 hPa 0,0 l/m 9,0 km/h (2 Bft) SW 236 5 min 0,000 mm 1,0 UV-I 760 W/m 13,9 C 31,6 C 11,9 km/h (2 Bft) 0,00 %
04.08.2015 17:53 32,0 C 34 % 1012,8 hPa 0,0 l/m 4,3 km/h (1 Bft) W-SW 251 5 min 0,000 mm 1,0 UV-I 780 W/m 14,1 C 32,0 C 7,9 km/h (2 Bft) 0,00 %
04.08.2015 17:58 32,1 C 34 % 1012,8 hPa 0,0 l/m 0,0 km/h (0 Bft) N-NW 344 5 min 0,000 mm 1,0 UV-I 772 W/m 14,2 C 32,1 C 0,0 km/h (0 Bft) 0,00 %
04.08.2015 18:03 32,2 C 35 % 1012,9 hPa 0,0 l/m 5,4 km/h (1 Bft) W 275 5 min 0,000 mm 1,0 UV-I 733 W/m 14,8 C 32,2 C 7,9 km/h (2 Bft) 0,00 %
04.08.2015 18:08 32,1 C 37 % 1012,9 hPa 0,0 l/m 0,0 km/h (0 Bft) O 89 5 min 0,000 mm 1,0 UV-I 747 W/m 15,5 C 32,1 C 0,0 km/h (0 Bft) 0,00 %
04.08.2015 18:13 32,0 C 33 % 1012,7 hPa 0,0 l/m 4,7 km/h (1 Bft) SO 138 5 min 0,000 mm 1,0 UV-I 724 W/m 13,7 C 32,0 C 7,9 km/h (2 Bft) 0,00 %
04.08.2015 18:18 31,7 C 32 % 1012,8 hPa 0,0 l/m 0,0 km/h (0 Bft) NO 35 5 min 0,000 mm 1,0 UV-I 682 W/m 12,9 C 31,7 C 0,0 km/h (0 Bft) 0,00 %
04.08.2015 18:23 31,5 C 33 % 1012,9 hPa 0,0 l/m 0,0 km/h (0 Bft) NO 46 5 min 0,000 mm 1,0 UV-I 655 W/m 13,2 C 31,5 C 0,0 km/h (0 Bft) 0,00 %
04.08.2015 18:28 31,7 C 34 % 1012,8 hPa 0,0 l/m 0,0 km/h (0 Bft) N 349 5 min 0,000 mm 1,0 UV-I 655 W/m 13,9 C 31,7 C 0,0 km/h (0 Bft) 0,00 %
04.08.2015 18:33 31,9 C 35 % 1012,8 hPa 0,0 l/m 0,0 km/h (0 Bft) NO 49 5 min 0,000 mm 1,0 UV-I 646 W/m 14,5 C 31,9 C 0,0 km/h (0 Bft) 0,00 %
04.08.2015 18:38 32,0 C 35 % 1012,8 hPa 0,0 l/m 1,4 km/h (1 Bft) W-SW 256 5 min 0,000 mm 1,0 UV-I 635 W/m 14,6 C 32,0 C 7,9 km/h (2 Bft) 0,00 %
04.08.2015 18:43 31,8 C 34 % 1012,8 hPa 0,0 l/m 0,0 km/h (0 Bft) NO 49 5 min 0,000 mm 1,0 UV-I 410 W/m 14,0 C 31,8 C 0,0 km/h (0 Bft) 0,00 %
04.08.2015 18:48 31,6 C 33 % 1012,9 hPa 0,0 l/m 0,0 km/h (0 Bft) NO 37 5 min 0,000 mm 1,0 UV-I 551 W/m 13,3 C 31,6 C 0,0 km/h (0 Bft) 0,00 %
04.08.2015 18:53 31,3 C 35 % 1012,9 hPa 0,0 l/m 0,0 km/h (0 Bft) NW 322 5 min 0,000 mm 1,0 UV-I 556 W/m 14,0 C 31,3 C 0,0 km/h (0 Bft) 0,00 %
04.08.2015 18:58 31,1 C 33 % 1013,0 hPa 0,0 l/m 0,4 km/h (0 Bft) N 351 5 min 0,000 mm 1,0 UV-I 545 W/m 12,9 C 31,1 C 4,0 km/h (1 Bft) 0,00 %
04.08.2015 19:03 31,0 C 32 % 1013,0 hPa 0,0 l/m 1,8 km/h (1 Bft) W-SW 256 5 min 0,000 mm 1,0 UV-I 543 W/m 12,3 C 31,0 C 4,0 km/h (1 Bft) 0,00 %
04.08.2015 19:08 31,0 C 32 % 1013,0 hPa 0,0 l/m 0,0 km/h (0 Bft) NO 42 5 min 0,000 mm 1,0 UV-I 517 W/m 12,3 C 31,0 C 0,0 km/h (0 Bft) 0,00 %
04.08.2015 19:13 31,2 C 32 % 1012,9 hPa 0,0 l/m 0,0 km/h (0 Bft) NO 49 5 min 0,000 mm 1,0 UV-I 344 W/m 12,5 C 31,2 C 0,0 km/h (0 Bft) 0,00 %
04.08.2015 19:18 31,1 C 32 % 1013,1 hPa 0,0 l/m 0,0 km/h (0 Bft) O-SO 114 5 min 0,000 mm 1,0 UV-I 411 W/m 12,4 C 31,1 C 0,0 km/h (0 Bft) 0,00 %
04.08.2015 19:23 30,8 C 33 % 1013,1 hPa 0,0 l/m 0,7 km/h (0 Bft) W 281 5 min 0,000 mm 0,0 UV-I 252 W/m 12,6 C 30,8 C 4,0 km/h (1 Bft) 0,00 %
04.08.2015 19:28 30,3 C 32 % 1013,0 hPa 0,0 l/m 0,0 km/h (0 Bft) N-NO 27 5 min 0,000 mm 0,0 UV-I 311 W/m 11,7 C 30,3 C 0,0 km/h (0 Bft) 0,00 %
04.08.2015 19:33 30,0 C 33 % 1013,1 hPa 0,0 l/m 0,0 km/h (0 Bft) NO 47 5 min 0,000 mm 0,0 UV-I 202 W/m 11,9 C 30,0 C 0,0 km/h (0 Bft) 0,00 %
04.08.2015 19:38 29,9 C 36 % 1013,1 hPa 0,0 l/m 0,0 km/h (0 Bft) O-NO 61 5 min 0,000 mm 0,0 UV-I 222 W/m 13,2 C 29,9 C 0,0 km/h (0 Bft) 0,00 %
04.08.2015 19:43 29,7 C 37 % 1013,1 hPa 0,0 l/m 0,0 km/h (0 Bft) NO 51 5 min 0,000 mm 0,0 UV-I 148 W/m 13,4 C 29,7 C 0,0 km/h (0 Bft) 0,00 %
04.08.2015 19:48 29,3 C 37 % 1013,3 hPa 0,0 l/m 0,0 km/h (0 Bft) O-NO 58 5 min 0,000 mm 0,0 UV-I 93 W/m 13,1 C 29,3 C 0,0 km/h (0 Bft) 0,00 %
04.08.2015 19:53 28,9 C 40 % 1013,1 hPa 0,0 l/m 0,0 km/h (0 Bft) NO 42 5 min 0,000 mm 0,0 UV-I 86 W/m 13,9 C 28,9 C 0,0 km/h (0 Bft) 0,00 %
04.08.2015 19:58 28,5 C 39 % 1013,3 hPa 0,0 l/m 0,0 km/h (0 Bft) NO 46 5 min 0,000 mm 0,0 UV-I 73 W/m 13,2 C 28,5 C 0,0 km/h (0 Bft) 0,00 %
04.08.2015 20:03 28,1 C 41 % 1013,4 hPa 0,0 l/m 0,0 km/h (0 Bft) NO 46 5 min 0,000 mm 0,0 UV-I 55 W/m 13,6 C 28,1 C 0,0 km/h (0 Bft) 0,00 %
04.08.2015 20:08 27,6 C 42 % 1013,4 hPa 0,0 l/m 0,0 km/h (0 Bft) NO 43 5 min 0,000 mm 0,0 UV-I 39 W/m 13,5 C 27,6 C 0,0 km/h (0 Bft) 0,00 %
04.08.2015 20:13 27,2 C 42 % 1013,5 hPa 0,0 l/m 0,0 km/h (0 Bft) N-NO 31 5 min 0,000 mm 0,0 UV-I 26 W/m 13,2 C 27,2 C 0,0 km/h (0 Bft) 0,00 %
04.08.2015 20:18 26,9 C 42 % 1013,5 hPa 0,0 l/m 0,0 km/h (0 Bft) O-NO 66 5 min 0,000 mm 0,0 UV-I 19 W/m 12,9 C 26,9 C 0,0 km/h (0 Bft) 0,00 %
04.08.2015 20:23 26,5 C 44 % 1013,4 hPa 0,0 l/m 0,0 km/h (0 Bft) O-NO 62 0 min 0,000 mm 0,0 UV-I 9 W/m 13,2 C 26,5 C 0,0 km/h (0 Bft) 0,00 %
04.08.2015 20:28 26,1 C 45 % 1013,4 hPa 0,0 l/m 0,0 km/h (0 Bft) O-NO 60 0 min 0,000 mm 0,0 UV-I 3 W/m 13,2 C 26,1 C 0,0 km/h (0 Bft) 0,00 %
04.08.2015 20:33 25,8 C 46 % 1013,6 hPa 0,0 l/m 0,0 km/h (0 Bft) O-NO 69 0 min 0,000 mm 0,0 UV-I 0 W/m 13,3 C 25,8 C 0,0 km/h (0 Bft) 0,00 %
04.08.2015 20:38 25,5 C 45 % 1013,6 hPa 0,0 l/m 0,0 km/h (0 Bft) O-NO 57 0 min 0,000 mm 0,0 UV-I 0 W/m 12,7 C 25,5 C 0,0 km/h (0 Bft) 0,00 %
04.08.2015 20:43 25,2 C 46 % 1013,6 hPa 0,0 l/m 0,0 km/h (0 Bft) O-NO 68 0 min 0,000 mm 0,0 UV-I 0 W/m 12,7 C 25,2 C 0,0 km/h (0 Bft) 0,00 %
04.08.2015 20:48 24,9 C 47 % 1013,8 hPa 0,0 l/m 0,0 km/h (0 Bft) NO 53 0 min 0,000 mm 0,0 UV-I 0 W/m 12,8 C 24,9 C 0,0 km/h (0 Bft) 0,00 %
04.08.2015 20:53 24,7 C 47 % 1013,7 hPa 0,0 l/m 0,0 km/h (0 Bft) NO 52 0 min 0,000 mm 0,0 UV-I 0 W/m 12,6 C 24,7 C 0,0 km/h (0 Bft) 0,00 %
04.08.2015 20:58 24,5 C 48 % 1013,8 hPa 0,0 l/m 0,0 km/h (0 Bft) NO 50 0 min 0,000 mm 0,0 UV-I 0 W/m 12,8 C 24,5 C 0,0 km/h (0 Bft) 0,00 %
04.08.2015 21:03 24,3 C 50 % 1013,9 hPa 0,0 l/m 0,0 km/h (0 Bft) O-NO 66 0 min 0,000 mm 0,0 UV-I 0 W/m 13,2 C 24,3 C 0,0 km/h (0 Bft) 0,00 %
04.08.2015 21:08 24,2 C 52 % 1014,0 hPa 0,0 l/m 0,0 km/h (0 Bft) NO 53 0 min 0,000 mm 0,0 UV-I 0 W/m 13,7 C 24,2 C 0,0 km/h (0 Bft) 0,00 %
04.08.2015 21:13 24,0 C 52 % 1014,1 hPa 0,0 l/m 0,0 km/h (0 Bft) NO 53 0 min 0,000 mm 0,0 UV-I 0 W/m 13,5 C 24,0 C 0,0 km/h (0 Bft) 0,00 %
04.08.2015 21:18 23,8 C 54 % 1013,9 hPa 0,0 l/m 0,0 km/h (0 Bft) NO 51 0 min 0,000 mm 0,0 UV-I 0 W/m 13,9 C 23,8 C 0,0 km/h (0 Bft) 0,00 %
04.08.2015 21:23 23,6 C 55 % 1014,0 hPa 0,0 l/m 0,0 km/h (0 Bft) O-NO 65 0 min 0,000 mm 0,0 UV-I 0 W/m 14,0 C 23,6 C 0,0 km/h (0 Bft) 0,00 %
04.08.2015 21:28 23,5 C 55 % 1014,0 hPa 0,0 l/m 0,0 km/h (0 Bft) O-NO 65 0 min 0,000 mm 0,0 UV-I 0 W/m 13,9 C 23,5 C 0,0 km/h (0 Bft) 0,00 %
04.08.2015 21:33 23,3 C 57 % 1014,0 hPa 0,0 l/m 0,0 km/h (0 Bft) O-NO 65 0 min 0,000 mm 0,0 UV-I 0 W/m 14,3 C 23,3 C 0,0 km/h (0 Bft) 0,00 %
04.08.2015 21:38 23,1 C 59 % 1014,1 hPa 0,0 l/m 0,0 km/h (0 Bft) O-NO 65 0 min 0,000 mm 0,0 UV-I 0 W/m 14,6 C 23,1 C 0,0 km/h (0 Bft) 0,00 %
04.08.2015 21:43 22,9 C 60 % 1014,1 hPa 0,0 l/m 0,0 km/h (0 Bft) O-NO 65 0 min 0,000 mm 0,0 UV-I 0 W/m 14,7 C 22,9 C 0,0 km/h (0 Bft) 0,00 %
04.08.2015 21:48 22,6 C 61 % 1014,2 hPa 0,0 l/m 0,0 km/h (0 Bft) NO 39 0 min 0,000 mm 0,0 UV-I 0 W/m 14,7 C 22,6 C 0,0 km/h (0 Bft) 0,00 %
04.08.2015 21:53 22,3 C 61 % 1014,4 hPa 0,0 l/m 0,0 km/h (0 Bft) NO 53 0 min 0,000 mm 0,0 UV-I 0 W/m 14,4 C 22,3 C 0,0 km/h (0 Bft) 0,00 %
04.08.2015 21:58 22,0 C 62 % 1014,4 hPa 0,0 l/m 0,0 km/h (0 Bft) NO 46 0 min 0,000 mm 0,0 UV-I 0 W/m 14,4 C 22,0 C 0,0 km/h (0 Bft) 0,00 %
04.08.2015 22:03 22,0 C 62 % 1014,4 hPa 0,0 l/m 0,0 km/h (0 Bft) O-NO 61 0 min 0,000 mm 0,0 UV-I 0 W/m 14,4 C 22,0 C 0,0 km/h (0 Bft) 0,00 %
04.08.2015 22:08 22,0 C 63 % 1014,5 hPa 0,0 l/m 0,0 km/h (0 Bft) N 358 0 min 0,000 mm 0,0 UV-I 0 W/m 14,6 C 22,0 C 0,0 km/h (0 Bft) 0,00 %
04.08.2015 22:13 22,0 C 65 % 1014,8 hPa 0,0 l/m 1,4 km/h (1 Bft) O-NO 62 0 min 0,000 mm 0,0 UV-I 0 W/m 15,1 C 22,0 C 4,0 km/h (1 Bft) 0,00 %
04.08.2015 22:18 21,9 C 64 % 1015,0 hPa 0,0 l/m 1,4 km/h (1 Bft) NW 325 0 min 0,000 mm 0,0 UV-I 0 W/m 14,8 C 21,9 C 4,0 km/h (1 Bft) 0,00 %
04.08.2015 22:23 22,2 C 61 % 1015,2 hPa 0,0 l/m 7,2 km/h (2 Bft) W-SW 256 0 min 0,000 mm 0,0 UV-I 0 W/m 14,3 C 21,9 C 11,9 km/h (2 Bft) 0,00 %
04.08.2015 22:28 22,9 C 58 % 1015,2 hPa 0,0 l/m 2,2 km/h (1 Bft) NW 319 0 min 0,000 mm 0,0 UV-I 0 W/m 14,2 C 22,9 C 4,0 km/h (1 Bft) 0,00 %
04.08.2015 22:33 23,4 C 57 % 1015,3 hPa 0,0 l/m 0,0 km/h (0 Bft) N-NO 23 0 min 0,000 mm 0,0 UV-I 0 W/m 14,4 C 23,4 C 0,0 km/h (0 Bft) 0,00 %
04.08.2015 22:38 23,6 C 56 % 1015,6 hPa 0,0 l/m 8,3 km/h (2 Bft) W 277 0 min 0,000 mm 0,0 UV-I 0 W/m 14,3 C 23,0 C 11,9 km/h (2 Bft) 0,00 %
04.08.2015 22:43 23,7 C 56 % 1015,6 hPa 0,0 l/m 1,8 km/h (1 Bft) W-SW 258 0 min 0,000 mm 0,0 UV-I 0 W/m 14,4 C 23,7 C 4,0 km/h (1 Bft) 0,00 %
04.08.2015 22:48 23,8 C 55 % 1015,8 hPa 0,0 l/m 0,4 km/h (0 Bft) S-SW 193 0 min 0,000 mm 0,0 UV-I 0 W/m 14,2 C 23,8 C 4,0 km/h (1 Bft) 0,00 %
04.08.2015 22:53 23,9 C 53 % 1015,9 hPa 0,0 l/m 7,2 km/h (2 Bft) W-SW 256 0 min 0,000 mm 0,0 UV-I 0 W/m 13,7 C 23,7 C 11,9 km/h (2 Bft) 0,00 %
04.08.2015 22:58 24,0 C 52 % 1016,0 hPa 0,0 l/m 12,2 km/h (2 Bft) W 277 0 min 0,000 mm 0,0 UV-I 0 W/m 13,5 C 22,6 C 15,8 km/h (3 Bft) 0,00 %
04.08.2015 23:03 24,1 C 52 % 1016,0 hPa 0,0 l/m 9,0 km/h (2 Bft) W 279 0 min 0,000 mm 0,0 UV-I 0 W/m 13,6 C 23,4 C 11,9 km/h (2 Bft) 0,00 %
04.08.2015 23:08 24,0 C 52 % 1016,2 hPa 0,0 l/m 4,3 km/h (1 Bft) W-NW 293 0 min 0,000 mm 0,0 UV-I 0 W/m 13,5 C 24,0 C 7,9 km/h (2 Bft) 0,00 %
04.08.2015 23:13 23,9 C 53 % 1016,5 hPa 0,0 l/m 11,5 km/h (2 Bft) W-NW 300 0 min 0,000 mm 0,0 UV-I 0 W/m 13,7 C 22,6 C 15,8 km/h (3 Bft) 0,00 %
04.08.2015 23:18 23,9 C 53 % 1016,4 hPa 0,0 l/m 6,8 km/h (2 Bft) W-SW 256 0 min 0,000 mm 0,0 UV-I 0 W/m 13,7 C 23,8 C 7,9 km/h (2 Bft) 0,00 %
04.08.2015 23:23 23,8 C 53 % 1016,7 hPa 0,0 l/m 2,2 km/h (1 Bft) S-SW 213 0 min 0,000 mm 0,0 UV-I 0 W/m 13,6 C 23,8 C 7,9 km/h (2 Bft) 0,00 %
04.08.2015 23:28 23,7 C 54 % 1016,9 hPa 0,0 l/m 5,4 km/h (1 Bft) W-SW 256 0 min 0,000 mm 0,0 UV-I 0 W/m 13,8 C 23,7 C 7,9 km/h (2 Bft) 0,00 %
04.08.2015 23:33 23,6 C 54 % 1016,9 hPa 0,0 l/m 4,0 km/h (1 Bft) NO 34 0 min 0,000 mm 0,0 UV-I 0 W/m 13,7 C 23,6 C 7,9 km/h (2 Bft) 0,00 %
04.08.2015 23:38 23,5 C 55 % 1017,1 hPa 0,0 l/m 4,7 km/h (1 Bft) W-NW 292 0 min 0,000 mm 0,0 UV-I 0 W/m 13,9 C 23,5 C 7,9 km/h (2 Bft) 0,00 %
04.08.2015 23:43 23,4 C 55 % 1017,1 hPa 0,0 l/m 4,3 km/h (1 Bft) W-NW 295 0 min 0,000 mm 0,0 UV-I 0 W/m 13,8 C 23,4 C 7,9 km/h (2 Bft) 0,00 %
04.08.2015 23:48 23,2 C 55 % 1017,2 hPa 0,0 l/m 9,7 km/h (2 Bft) O-NO 58 0 min 0,000 mm 0,0 UV-I 0 W/m 13,6 C 22,3 C 19,8 km/h (3 Bft) 0,00 %
04.08.2015 23:53 23,1 C 55 % 1017,4 hPa 0,0 l/m 10,4 km/h (2 Bft) W-SW 255 0 min 0,000 mm 0,0 UV-I 0 W/m 13,6 C 22,0 C 15,8 km/h (3 Bft) 0,00 %
04.08.2015 23:58 23,1 C 54 % 1017,5 hPa 0,0 l/m 4,7 km/h (1 Bft) N-NW 341 0 min 0,000 mm 0,0 UV-I 0 W/m 13,3 C 23,1 C 7,9 km/h (2 Bft) 0,00 %
_ Min-Zeit 05:32 15:48 15:53 - 00:02 - - - - - - 16:58 05:32 00:02 00:02
Minimum _ 13,0 C 28 % 1012,7 hPa - 0,0 km/h (0 Bft) - - - - - - 11,5 C 13,0 C 0,0 km/h (0 Bft) 0,00 %
_ Max-Zeit 15:48 06:12 00:22 00:02 22:58 - - 12:08 00:02 12:13 15:43 10:52 15:48 23:48 00:02
Maximum _ 33,4 C 99 % 1017,5 hPa 0,0 l/m 12,2 km/h
W (2 Bft)
- - 6 min 0,000 mm 5,0 UV-I 989 W/m 17,2 C 33,4 C 19,8 km/h
O-NO (3 Bft)
0,00 %
Durchschnitt _ 24,0 C 60 % 1014,8 hPa #0,0 l/m 1,0 km/h (0 Bft) W-SW - #14:26 h #0,000 mm 2,5 UV-I 587 W/m 14,2 C 23,9 C 1,9 km/h (1 Bft) 0,00 %